Custer, SD

3:53 PM MST on February 23, 2018 (GMT -0700)
Custer County

Weather History for KCUT - July, 2013

Change the Weather History Date:

Saturday, July 13, 2013

  Actual Average Record
Temperature  
Mean Temperature 70 °F 66 °F  
Max Temperature 86 °F 80 °F 95 °F (1954)
Min Temperature 54 °F 52 °F 30 °F (1950)
Degree Days  
Heating Degree Days 0 2  
Month to date heating degree days 10 30  
Since 1 June heating degree days 203 250  
Since 1 July heating degree days 10 30  
Cooling Degree Days 5 3  
Month to date cooling degree days 32 29  
Year to date cooling degree days 43 55  
Since 1 June cooling degree days 41 54  
Growing Degree Days 20 (Base 50)    
Moisture  
Dew Point 56 °F    
Average Humidity 58    
Maximum Humidity 93    
Minimum Humidity 23    
Precipitation  
Precipitation 0.00 in 0.09 in 2.76 in (1929)
Month to date precipitation 2.22 1.02  
Year to date precipitation 10.40 11.35  
Sea Level Pressure  
Sea Level Pressure 29.92 in    
Wind  
Wind Speed 5 mph (East)    
Max Wind Speed 13 mph    
Max Gust Speed 20 mph    
Visibility 10 miles    
Events      
T = Trace of Precipitation, MM = Missing Value Source: NWS Daily Summary

Daily Weather History Graph

Daily Weather History Graph

Search for Another Location

Airport or City:

Trip Planner

Search our weather history database for the weather conditions in past years. The results will help you decide how hot, cold, wet, or windy it might be!

Date:

Astronomy

Jul. 13, 2013 Rise Set
Actual Time 5:25 AM MDT 8:35 PM MDT
Civil Twilight 4:50 AM MDT 9:09 PM MDT
Nautical Twilight 4:05 AM MDT 9:54 PM MDT
Astronomical Twilight 3:10 AM MDT 10:48 PM MDT
Moon 10:55 AM MDT (7/13) 11:03 PM MDT (7/13)
Length of Visible Light 16h 19m
Length of Day
15h 09m
Waxing Crescent, 26% of the Moon is Illuminated
Jul 13
Waxing Crescent
Jul 15
First Quarter
Jul 22
Full
Jul 29
Last Quarter
Aug 6
New

Hourly Weather History & Observations

Time (MDT) Temp. Heat Index Dew Point Humidity Pressure Visibility Wind Dir Wind Speed Gust Speed Precip Events Conditions
12:53 AM 60.1 °F - 57.0 °F 90% 29.93 in 10.0 mi Calm Calm - N/A   Scattered Clouds
1:53 AM 60.1 °F - 55.0 °F 83% 29.91 in 10.0 mi Calm Calm - N/A   Clear
2:53 AM 57.9 °F - 55.0 °F 90% 29.92 in 10.0 mi NNW 4.6 mph - N/A   Clear
3:53 AM 57.9 °F - 54.0 °F 87% 29.90 in 10.0 mi Calm Calm - N/A   Clear
4:53 AM 55.9 °F - 53.1 °F 90% 29.92 in 10.0 mi Calm Calm - N/A   Clear
5:53 AM 55.0 °F - 53.1 °F 93% 29.93 in 10.0 mi NNW 3.5 mph - N/A   Clear
6:53 AM 62.1 °F - 54.0 °F 75% 29.94 in 10.0 mi NNW 3.5 mph - N/A   Clear
7:53 AM 68.0 °F - 55.9 °F 65% 29.93 in 10.0 mi Variable 3.5 mph - N/A   Clear
8:53 AM 69.1 °F - 57.9 °F 68% 29.94 in 10.0 mi South 3.5 mph - N/A   Clear
9:53 AM 72.0 °F - 57.0 °F 59% 29.93 in 10.0 mi Variable 6.9 mph - N/A   Clear
10:53 AM 75.0 °F - 59.0 °F 57% 29.93 in 10.0 mi Variable 5.8 mph - N/A   Clear
11:53 AM 78.1 °F - 57.9 °F 50% 29.93 in 10.0 mi Variable 5.8 mph - N/A   Clear
12:53 PM 79.0 °F - 57.0 °F 47% 29.92 in 10.0 mi SE 8.1 mph - N/A   Clear
1:53 PM 80.1 °F 80.6 °F 57.9 °F 47% 29.91 in 10.0 mi SSE 10.4 mph 16.1 mph N/A   Partly Cloudy
2:53 PM 81.0 °F 80.7 °F 55.0 °F 41% 29.91 in 10.0 mi SSW 8.1 mph - N/A   Clear
3:53 PM 82.9 °F - 46.9 °F 28% 29.90 in 10.0 mi Calm Calm - N/A   Clear
4:53 PM 84.0 °F - 43.0 °F 24% 29.90 in 10.0 mi WSW 3.5 mph - N/A   Clear
5:53 PM 80.1 °F - 50.0 °F 35% 29.91 in 10.0 mi SSE 3.5 mph - N/A   Clear
6:53 PM 78.1 °F - 61.0 °F 56% 29.90 in 10.0 mi ESE 8.1 mph - N/A   Clear
7:53 PM 75.0 °F - 61.0 °F 62% 29.91 in 10.0 mi East 5.8 mph - N/A   Clear
8:53 PM 72.0 °F - 61.0 °F 68% 29.94 in 10.0 mi ENE 4.6 mph - N/A   Clear
9:53 PM 70.0 °F - 61.0 °F 73% 29.96 in 10.0 mi NE 5.8 mph - N/A   Clear
10:53 PM 69.1 °F - 60.1 °F 73% 29.96 in 10.0 mi NE 5.8 mph - N/A   Mostly Cloudy
11:53 PM 69.1 °F - 59.0 °F 70% 29.95 in 10.0 mi Calm Calm - N/A   Mostly Cloudy